This is the latest recevied weather packets stored in our database for station/object KF5VOI. If no packets are shown the sender has not sent any weather packets the latest 10 day(s).
| Time | Temp. | Humidity | Pressure | Rain* | Wind** | Luminosity | Snow |
|---|---|---|---|---|---|---|---|
| 1777467314 | 23.89° C | 99% | 1016.8 hPa | 0 mm | - | - | - |
| 1777465514 | 22.78° C | 99% | 1016.6 hPa | 0 mm | - | - | - |
| 1777463714 | 22.78° C | 99% | 1015.9 hPa | 0 mm | - | - | - |
| 1777461914 | 22.78° C | 99% | 1015.6 hPa | 0 mm | - | - | - |
| 1777460114 | 23.33° C | 99% | 1015.3 hPa | 0 mm | - | - | - |
| 1777458314 | 23.33° C | 99% | 1015.3 hPa | 0 mm | - | - | - |
| 1777456514 | 23.33° C | 99% | 1015 hPa | 0 mm | - | - | - |
| 1777454714 | 23.33° C | 99% | 1015.4 hPa | 0 mm | - | - | - |
| 1777452914 | 23.33° C | 99% | 1015.7 hPa | 0 mm | - | - | - |
| 1777451114 | 23.33° C | 99% | 1015.6 hPa | 0 mm | - | - | - |
| 1777449314 | 23.33° C | 99% | 1015.6 hPa | 0 mm | - | - | - |
| 1777447514 | 23.33° C | 99% | 1016 hPa | 0 mm | - | - | - |
| 1777445714 | 23.33° C | 99% | 1016.6 hPa | 0 mm | - | - | - |
| 1777443914 | 23.33° C | 99% | 1016.8 hPa | 0 mm | - | - | - |
| 1777442114 | 23.33° C | 99% | 1017.2 hPa | 0 mm | - | - | - |
| 1777440314 | 23.89° C | 97% | 1016.9 hPa | 0 mm | - | - | - |
| 1777438514 | 23.89° C | 97% | 1017 hPa | 0 mm | - | - | - |
| 1777436714 | 23.89° C | 97% | 1017 hPa | 0 mm | - | - | - |
| 1777434914 | 23.89° C | 98% | 1016.7 hPa | 0 mm | - | - | - |
| 1777433114 | 23.89° C | 98% | 1016.6 hPa | 0 mm | - | - | - |
| 1777431314 | 24.44° C | 96% | 1017.2 hPa | 0 mm | - | - | - |
| 1777429514 | 24.44° C | 96% | 1017 hPa | 0 mm | - | - | - |
| 1777427714 | 24.44° C | 95% | 1016.8 hPa | 0 mm | - | - | - |
| 1777425914 | 25° C | 93% | 1017 hPa | 0 mm | - | - | - |
* Rain latest hour (hover to see other rain measurements)
** Current wind speed in m/s (hover to see current wind gust speed)